CZ-6A DEB, 56665

Orbit data source: Space-Track

CZ-6A DEB, 56665 is space debris in SSO originally from a launch on Fri, 11 Nov 2022 UTC launched from the Taiyaun Space Center, China (TSC). Debris objects in space refer to the collection of defunct objects orbiting the Earth. Examples of debris include non-operational satellites, rocket bodies, and fragments generated from explosions, collisions, or faulty payload assembly.

Loading next visibility...
Identifier
56665, 2022-151AGR
Orbit
SSO
Country
Flag of CNCN / PRC
Related business
Manufacturer
SAST
Mission
Spacecraft
Bus & Motor
Unknown
Mass
Unknown
Launch date (UTC)
2022-11-11 (4 years ago)
Launch vehicle
Unknown
Launch site
Taiyaun Space Center, China (TSC)
Object type
Payload
Rocket body
Debris
Shape & HBR
Unknown shape, 0.1 m
Radar Cross Section
Small (<0.1 m²)

Expand to show TLE details & history
Last TLE update: 6 hours ago

TLE from 6 hours ago
0 CZ-6A DEB
1 56665U 22151AGR 26238.51678832  .00002365  00000-0  45326-3 0  9999
2 56665  98.6994 328.0562 0122864  41.9944 319.0595 14.60081595182568
Epoch: 2026-08-26T12:24Z
TLE epoch observation values (Epoch: 2026-08-26T12:24:10.510Z)
Latitude
-0.00003°
Longitude
167.24376°
Altitude
630.705 km
Speed
7.578 km/s
True Right ascension
21h 52m 13s
True Declination
0° 00' 00"
Sunlit
Object was in full shadow at epoch
Visualization orbit readout
Latitude
Unknown
Longitude
Unknown
Altitude
Unknown
Speed
Unknown
Apparent Right ascension
Unknown
Apparent Declination
Unknown
Sunlit
N/A
Visualization observer readout
Local Sidereal Time
09:19:29
Azimuth
Unknown
Elevation
Unknown
Doppler factor
Unknown
Orbital elements
Apogee altitude
776.857 km
Perigee altitude
603.172 km
Semi-major axis
7,068.152 km
Eccentricity
0.01229
Inclination
98.6994°
RAAN
328.0562°
Arg. of periapsis
41.9944°
True anomaly
318.12614°
Mean anomaly
319.0595°
Eccentric anomaly
318.59391°
Mean motion
3.65245 °/min
Orbital period
98.56 mins
BSTAR
0.00045326
Loading maneuver chart data...
Computing Atmospheric mass density...
Loading historical data...
Loading historical data...
Loading historical data...
Loading historical data...
Loading historical data...
Loading historical data...
Loading historical data...

Documentation

Showing up to 5 results
|